Location: Mactaquac Provincial Park
(45.9573°N, 66.8897°W)
Time: 08:21:56
(UTC-04:00)

Cosmos 1867 - Visible Passes

Search period start: 27 January 2015 00:00
Search period end: 06 February 2015 00:00
Orbit: 778 x 798 km, 65.0° (Epoch: 26 January)

Date Brightness Start Highest point End Pass type
(mag) Time Alt. Az. Time Alt. Az. Time Alt. Az.
27 Jan 6.5 03:39:03 10° NE 03:39:03 10° NE 03:39:07 10° NE visible
27 Jan 5.2 05:19:43 22° N 05:19:43 22° N 05:22:24 10° NNE visible
27 Jan 5.6 07:01:35 10° NNW 07:03:19 11° NNW 07:04:59 10° N visible
28 Jan 5.6 04:49:06 19° N 04:49:06 19° N 04:50:54 10° NNE visible
28 Jan 5.5 06:29:46 11° NW 06:31:19 12° NNW 06:33:33 10° N visible
29 Jan 6.0 04:18:27 15° NNE 04:18:27 15° NNE 04:19:23 10° NNE visible
29 Jan 5.5 05:59:07 14° NNW 05:59:20 14° NNW 06:02:08 10° N visible
30 Jan 6.4 03:47:46 10° NNE 03:47:46 10° NNE 03:47:50 10° NNE visible
30 Jan 5.6 05:28:26 15° NNW 05:28:26 15° NNW 05:30:41 10° NNE visible
31 Jan 5.7 04:57:43 15° N 04:57:43 15° N 04:59:13 10° NNE visible
01 Feb 6.0 04:26:59 13° NNE 04:26:59 13° NNE 04:27:45 10° NNE visible
01 Feb 5.8 06:08:24 10° NNW 06:09:19 10° N 06:10:12 10° N visible
02 Feb 6.4 03:56:14 10° NNE 03:56:14 10° NNE 03:56:15 10° NNE visible
02 Feb 5.8 05:36:54 11° NNW 05:37:18 11° NNW 05:38:49 10° N visible
03 Feb 5.9 05:06:08 12° N 05:06:08 12° N 05:07:25 10° N visible
03 Feb 5.9 06:50:08 10° N 06:51:26 11° N 06:52:48 10° NNE visible
04 Feb 6.1 04:35:21 11° N 04:35:21 11° N 04:35:59 10° N visible
04 Feb 6.0 06:18:48 10° N 06:19:24 10° N 06:20:03 10° NNE visible
